Home > Weather > Bimbo > Past weeks

Flag for Central African Republic Weather for the Past 2 Weeks in Bimbo, Central African Republic

Now
82 °F

Clear.


Feels Like: 91 °F
Forecast: 74 / 94 °F
Wind: No wind

Location: Bangui Airport

Current Time: Apr 30, 2016 at 8:51:31 PM

Latest Report: Apr 30, 2016 at 8:00 PM


Visibility: 5 mi

Pressure: 29.80 "Hg

Humidity: 84%

Dew Point: 77 °F

Location of BimboLocation

Historic Weather in Bimbo — Graph

°F

Bimbo Temperature Yesterday

Maximum temperature yesterday: 93 °F (at 4:00 PM)
Minimum temperature yesterday: 72 °F (at 5:00 AM)
Average temperature yesterday: 82 °F

High & Low Weather Summary for the Past Weeks

 TemperatureHumidityPressure
High99 °F (Apr 21, 3:00 PM)100% (Apr 16, 1:00 AM)30.01 "Hg (Apr 16, 1:00 AM)
Low36 °F (Apr 21, 4:00 PM)44% (Apr 19, 1:00 PM)29.68 "Hg (Apr 24, 4:00 PM)
Average82 °F81%29.83 "Hg
* Reported Apr 15 7:00 PM — Apr 30 7:00 PM, Bimbo, Weather by CustomWeather, © 2016

Note: Actual official high and low records may vary slightly from our data, if they occured in-between our weather recording intervals... More about our weather records

Advertising

Bimbo Weather History for the Previous 24 Hours

Scroll right to see more
 ConditionsComfort  
Time TempWeatherWind HumidityBarometerVisibility
7:00 PM
Sat, Apr 30
86 °FClear.1 mph75%29.77 "Hg5 mi
6:00 PM88 °FPassing clouds.2 mph70%29.74 "HgN/A
5:00 PM91 °FPassing clouds.2 mph59%29.71 "HgN/A
4:00 PM93 °FScattered clouds.5 mph53%29.71 "HgN/A
3:00 PM95 °FPartly sunny.5 mph53%29.74 "HgN/A
2:00 PM91 °FPartly sunny.6 mph59%29.77 "HgN/A
1:00 PM91 °FPartly sunny.7 mph59%29.80 "HgN/A
12:00 PM91 °FPartly sunny.6 mph59%29.83 "HgN/A
11:00 AM90 °FPartly sunny.6 mph67%29.86 "HgN/A
10:00 AM86 °FScattered clouds.6 mph70%29.86 "HgN/A
9:00 AM84 °FScattered clouds.2 mph74%29.89 "HgN/A
8:00 AM79 °FPartly sunny.6 mph89%29.89 "HgN/A
7:00 AM77 °FPassing clouds.1 mph89%29.86 "HgN/A
6:00 AM73 °FPassing clouds.No wind94%29.86 "HgN/A
5:00 AM73 °FClear.2 mph100%29.83 "Hg5 mi
4:00 AM73 °FClear.No wind100%29.83 "Hg5 mi
3:00 AM75 °FPassing clouds.2 mph89%29.80 "Hg5 mi
2:00 AM73 °FPassing clouds.2 mph94%29.80 "Hg5 mi
1:00 AM73 °FThunderstorms. Passing clouds.No wind94%29.83 "Hg5 mi
12:00 AM73 °FThunderstorms. Passing clouds.5 mph94%29.83 "Hg5 mi
11:00 PM
Fri, Apr 29
73 °FThunderstorms. Passing clouds.3 mph89%29.86 "Hg4 mi
10:00 PM81 °FThunderstorms. Passing clouds.7 mph84%29.86 "Hg4 mi
9:00 PM82 °FThunderstorms. Passing clouds.2 mph84%29.86 "Hg4 mi
8:00 PM82 °FThunderstorms. Passing clouds.2 mph79%29.80 "Hg4 mi
Weather by CustomWeather, © 2016

See weather overviewHow to use our weather pages